DW3209 Weather Reports


Display with metric or nautical units.
time (UTC)temp
F
wind
direction
speed
MPH
gust
MPH
rain 1hr
in
rain 24hr
in
rain mn
in
humidity
%
barometer
mb
20210411132624 38 302 0.0 0.0 0.00 0.00 0.00 34 1011.8
20210411131211 36 286 0.0 0.0 0.00 0.00 0.00 36 1010.6
20210411130224 36 286 0.0 0.0 0.00 0.00 0.00 34 1010.6
20210411120240 48 276 0.0 5.0 0.00 0.00 0.00 17 1009.5
20210411114208 52 122 0.0 3.0 0.00 0.00 0.00 16 1008.3
20210411113207 52 75 0.0 0.0 0.00 0.00 0.00 16 1008.3
20210411112425 52 27 0.0 0.0 0.00 0.00 0.00 16 1008.3
20210411111205 53 67 0.0 0.0 0.00 0.00 0.00 16 1008.3
20210411105647 51 146 0.0 0.0 0.00 0.00 0.00 16 1008.3
20210411104217 49 146 0.0 3.0 0.00 0.00 0.00 16 1008.3
20210411101207 50 137 0.0 0.0 0.00 0.00 0.00 16 1008.3
20210411094220 56 218 0.0 5.0 0.00 0.00 0.00 15 1008.3
20210411093215 54 175 0.0 6.0 0.00 0.00 0.00 15 1009.5
20210411091208 43 126 0.0 4.0 0.00 0.00 0.00 18 1009.5
20210411090232 44 215 0.0 0.0 0.00 0.00 0.00 18 1009.5
20210411085759 46 215 0.0 0.0 0.00 0.00 0.00 17 1009.5
20210411084216 47 215 0.0 0.0 0.00 0.00 0.00 17 1009.5
20210411083216 49 215 0.0 0.0 0.00 0.00 0.00 16 1009.5
20210411080217 54 225 0.0 0.0 0.00 0.00 0.00 15 1009.5
20210411075546 57 256 0.0 4.0 0.00 0.00 0.00 17 1009.5
20210411074209 58 115 2.0 3.0 0.00 0.00 0.00 17 1009.5
20210411071209 56 138 0.0 4.0 0.00 0.00 0.00 15 1009.5
20210411070222 57 208 3.0 5.0 0.00 0.00 0.00 17 1009.5
20210411065754 54 164 5.0 6.0 0.00 0.00 0.00 15 1009.5
20210411064211 42 145 0.0 0.0 0.00 0.00 0.00 21 1009.5
20210411061219 42 134 0.0 5.0 0.00 0.00 0.00 21 1009.5
20210411054313 42 131 0.0 0.0 0.00 0.00 0.00 21 1009.5
20210411051216 43 147 0.0 0.0 0.00 0.00 0.00 20 1009.5
20210411041214 47 147 0.0 0.0 0.00 0.00 0.00 17 1010.6
20210411034210 49 147 0.0 0.0 0.00 0.00 0.00 16 1010.6
20210411032934 50 147 0.0 0.0 0.00 0.00 0.00 16 1010.6
20210411025828 54 147 0.0 0.0 0.00 0.00 0.00 15 1010.6
20210411021208 59 147 0.0 0.0 0.00 0.00 0.00 17 1010.6
20210411015954 61 150 0.0 0.0 0.00 0.00 0.00 17 1010.6
20210411014221 62 150 0.0 0.0 0.00 0.00 0.00 16 1010.6
20210411013218 64 150 0.0 2.0 0.00 0.00 0.00 16 1010.6
20210411012650 64 106 4.0 6.0 0.00 0.00 0.00 15 1010.6
20210411011219 65 114 3.0 5.0 0.00 0.00 0.00 15 1009.5
20210411010226 66 141 0.0 6.0 0.00 0.00 0.00 15 1009.5
20210411010023 67 96 0.0 4.0 0.00 0.00 0.00 15 1009.5
20210411004231 67 121 0.0 2.0 0.00 0.00 0.00 15 1010.6
20210411003221 68 127 4.0 6.0 0.00 0.00 0.00 15 1010.6
20210411002209 69 123 2.0 4.0 0.00 0.00 0.00 15 1010.6
20210411000239 69 154 4.0 8.0 0.00 0.00 0.00 15 1010.6
20210410234303 69 162 2.0 6.0 0.00 0.00 0.00 15 1010.6
20210410231214 69 92 5.0 6.0 0.00 0.00 0.00 15 1010.6
20210410225222 69 171 4.0 5.0 0.00 0.00 0.00 15 1010.6
20210410222640 67 274 0.0 3.0 0.00 0.00 0.00 15 1010.6
20210410220209 67 286 0.0 4.0 0.00 0.00 0.00 15 1010.6
20210410205936 67 289 2.0 3.0 0.00 0.00 0.00 15 1011.8
20210410203226 66 298 3.0 4.0 0.00 0.00 0.00 15 1013.0
20210410203101 66 31 0.0 4.0 0.00 0.00 0.00 15 1013.0
20210410193219 65 332 0.0 3.0 0.00 0.00 0.00 15 1013.0
20210410184210 62 300 0.0 4.0 0.00 0.00 0.00 16 1014.1
20210410183211 61 288 2.0 3.0 0.00 0.00 0.00 16 1015.3
20210410181232 61 291 0.0 3.0 0.00 0.00 0.00 17 1015.3
20210410175806 58 342 0.0 4.0 0.00 0.00 0.00 17 1015.3
20210410174212 58 267 0.0 5.0 0.00 0.00 0.00 17 1016.4
20210410173227 56 330 0.0 5.0 0.00 0.00 0.00 17 1016.4
20210410171214 56 303 0.0 2.0 0.00 0.00 0.00 17 1016.4
20210410170249 54 7 0.0 3.0 0.00 0.00 0.00 18 1016.4
20210410164221 53 5 0.0 3.0 0.00 0.00 0.00 21 1016.4
20210410163223 51 22 3.0 4.0 0.00 0.00 0.00 24 1016.4
20210410160233 48 4 0.0 3.0 0.00 0.00 0.00 26 1017.6
20210410155622 47 37 0.0 3.0 0.00 0.00 0.00 27 1017.6
20210410153212 46 284 0.0 0.0 0.00 0.00 0.00 29 1017.6
20210410152515 46 7 0.0 4.0 0.00 0.00 0.00 29 1017.6
20210410151216 45 312 0.0 3.0 0.00 0.00 0.00 31 1017.6
20210410150455 42 308 0.0 0.0 0.00 0.00 0.00 35 1017.6
20210410145859 40 298 0.0 0.0 0.00 0.00 0.00 37 1017.6
20210410144208 39 299 0.0 0.0 0.00 0.00 0.00 38 1017.6
20210410142635 38 34 0.0 0.0 0.00 0.00 0.00 40 1017.6
20210410140416 34 34 0.0 0.0 0.00 0.00 0.00 42 1017.6
20210410133223 28 34 0.0 0.0 0.00 0.00 0.00 52 1017.6